Tracking 23731 objects as of 26-Sep-2021
HD Live streaming from Space Station
objects crossing your sky now

WESTAR 5

Track WESTAR 5 now!
WESTAR 5 is classified as:


NORAD ID: 13269
Int'l Code: 1982-058A
Perigee: 36,031.5 km
Apogee: 36,155.6 km
Inclination: 14.7 °
Period: 1,451.4 minutes
Semi major axis: 42464 km
RCS: 3.0486 m2 (large)
Launch date: June 9, 1982
Source: United States (US)
Launch site: AIR FORCE EASTERN TEST RANGE (AFETR)
aabbcc
Your satellite tracking list
Your tracking list is empty




NASA's NSSDC Master Catalog

Two Line Element Set (TLE):
1 13269U 82058A   21267.87674412  .00000027  00000-0  00000-0 0  9990
2 13269  14.7096 350.2802 0014619 222.5602 182.3201  0.99211836102414
Source of the keplerian elements: AFSPC